Temperature
15 16 16 16 16 15 15 15 15 14 14 13 13 13 13 12 12 12 13 13 13 13 12 12 12 12 12 12 12 12 11 11 11 11 11 11 11 11 10 10 10 9 9
15 15 15 15 15 15 15 15 15 14 14 13 13 13 13 12 12 12 12 12 13 13 12 12 12 12 11 11 11 11 11 11 11 11 11 10 10 10 10 10 9 9 8
15 15 15 15 15 15 14 14 14 13 13 13 13 13 13 12 12 12 12 12 13 12 12 12 12 12 11 11 11 11 11 11 11 10 10 10 10 10 9 9 9 8 8
15 15 15 15 15 15 14 14 14 13 13 13 13 13 13 12 12 12 12 12 12 13 12 12 12 12 11 11 11 11 11 11 10 10 10 10 10 9 9 9 8 7 7
15 15 15 15 14 14 14 14 13 13 13 13 13 13 12 12 12 12 11 11 12 12 12 12 12 12 11 11 10 10 10 10 10 10 10 9 9 9 8 8 7 7 6
15 15 15 15 14 14 14 13 13 13 13 13 12 12 12 12 12 12 11 11 11 12 12 12 12 11 11 11 10 10 10 10 10 9 9 9 9 8 8 7 6 6 6
15 15 15 14 14 14 14 13 13 13 12 12 11 11 11 11 11 12 11 11 11 11 11 11 11 11 11 10 10 10 9 9 9 9 8 8 8 8 7 6 6 5 5
15 15 14 14 14 13 13 13 13 12 12 12 11 11 11 11 11 11 11 11 11 11 11 11 11 11 11 10 10 9 9 8 8 8 8 7 7 7 6 5 5 4 4
15 14 14 14 13 13 13 13 12 12 12 12 11 11 11 11 12 11 11 11 11 10 10 10 9 9 9 9 9 9 8 8 7 7 7 6 6 6 5 4 4 4 3
15 14 14 13 13 13 12 12 12 12 12 11 11 11 11 11 11 11 11 11 10 10 9 9 9 8 8 8 8 8 8 7 7 6 6 5 5 4 4 3 3 3 3
14 14 13 13 13 12 12 12 12 11 11 11 11 11 11 10 10 11 11 10 10 10 9 9 8 8 8 7 7 7 7 6 6 5 5 5 4 3 3 2 2 2 2
13 13 13 12 12 12 12 11 11 11 11 11 11 11 11 10 10 10 10 10 10 9 9 8 7 7 7 7 6 6 6 5 5 4 4 4 3 3 3 2 2 2 1
12 12 12 12 12 11 11 11 11 11 11 11 10 10 10 10 10 10 9 9 9 8 8 7 6 6 5 5 5 5 4 4 4 3 3 3 2 2 3 2 2 1 1
12 12 11 11 11 11 11 11 10 10 10 10 10 10 10 9 9 9 9 8 8 7 7 6 6 5 5 4 4 4 3 3 3 3 3 2 2 2 2 2 2 1 1
11 11 11 11 10 10 10 10 10 10 10 10 10 9 9 9 9 8 8 7 7 6 5 6 5 5 4 4 3 3 3 2 2 2 2 1 1 1 1 1 1 1 0
10 10 10 10 10 9 9 9 9 9 9 9 9 9 8 8 8 7 7 7 6 5 5 5 4 4 3 3 2 2 2 1 1 1 1 0 0 0 -0 0 -0 -0 -1
9 9 9 9 9 9 8 8 8 8 8 8 8 8 8 7 7 6 6 5 5 4 4 3 3 2 2 2 1 1 1 1 1 0 -0 -1 -1 -1 -1 -1 -1 -1 -1
8 8 8 8 8 8 7 7 7 7 7 7 7 7 6 6 6 5 5 4 4 3 3 2 2 1 1 1 0 0 -0 -0 -1 -1 -1 -1 -2 -2 -2 -2 -2 -2 -2
7 7 7 7 7 7 7 7 6 6 6 6 6 5 5 5 4 4 3 3 2 2 2 1 1 0 -0 -0 -1 -1 -1 -2 -2 -2 -2 -2 -2 -2 -2 -2 -2 -3 -3
6 6 6 6 6 6 6 5 5 5 5 5 4 4 4 3 3 2 2 1 1 1 0 -0 -0 -1 -1 -2 -2 -3 -2 -2 -2 -2 -3 -3 -3 -3 -3 -3 -3 -3 -3
5 5 5 5 5 5 5 4 4 4 4 3 3 2 2 2 1 1 1 0 -0 -0 -1 -1 -1 -2 -2 -3 -3 -4 -4 -4 -3 -3 -3 -3 -3 -3 -3 -3 -3 -3 -3
4 4 4 4 4 4 3 3 3 3 2 2 2 1 1 0 -0 -0 -1 -1 -1 -2 -2 -2 -3 -3 -3 -4 -4 -5 -5 -5 -4 -3 -4 -3 -3 -3 -3 -3 -3 -3 -4
3 3 3 3 3 2 2 2 2 2 1 1 0 0 -0 -1 -1 -1 -2 -2 -2 -3 -3 -3 -4 -4 -4 -5 -5 -5 -5 -6 -5 -4 -5 -4 -3 -3 -3 -3 -3 -3 -4
2 2 2 2 1 1 1 1 1 0 0 -0 -1 -1 -1 -1 -2 -2 -2 -2 -3 -3 -4 -4 -4 -4 -5 -5 -6 -6 -6 -6 -5 -5 -6 -5 -4 -4 -3 -3 -3 -3 -4
1 1 1 0 0 0 0 -0 -0 -1 -1 -1 -2 -2 -2 -2 -2 -3 -3 -3 -4 -4 -5 -5 -5 -5 -5 -6 -6 -6 -6 -6 -6 -5 -5 -6 -5 -5 -4 -3 -3 -3 -4
0 0 0 -0 -0 -1 -1 -1 -1 -1 -2 -2 -2 -2 -3 -3 -3 -4 -4 -4 -5 -5 -5 -5 -5 -5 -5 -6 -6 -6 -6 -7 -7 -7 -6 -7 -6 -7 -7 -4 -3 -3 -4
Wind_Speed
5 7 8 11 12 12 11 9 9 8 7 7 7 5 5 5 10 14 14 13 12 10 9 8 8 7 7 7 7 7 7 6 7 7 7 7 7 8 8 8 9 10 10
8 6 5 7 9 11 12 10 8 6 5 4 4 5 5 5 8 13 15 14 13 12 10 9 8 7 7 7 6 6 5 5 5 5 5 5 6 6 7 7 8 8 9
11 8 4 4 8 11 11 9 8 6 4 3 3 4 5 6 7 11 16 15 14 13 12 11 10 9 7 7 6 5 4 3 3 3 3 4 4 5 6 7 7 8 9
12 9 4 5 10 11 8 4 4 4 4 4 3 3 3 4 6 9 13 16 16 14 13 12 12 10 9 8 6 5 4 3 2 1 2 3 4 5 6 7 8 9 9
14 10 5 6 10 7 5 5 5 5 4 5 4 4 3 3 4 5 8 13 16 17 16 14 13 12 11 9 8 6 5 3 2 1 2 3 5 6 7 8 9 10 10
14 11 7 8 9 5 6 6 6 5 5 5 4 4 4 4 4 4 5 8 13 16 18 17 15 13 13 11 10 8 6 5 4 3 3 4 5 7 8 9 10 11 12
13 11 5 6 6 7 8 8 6 6 5 4 3 2 2 3 5 5 5 5 8 14 16 18 17 16 14 13 12 10 7 6 5 4 5 5 6 8 9 10 11 12 13
11 10 8 8 8 7 8 9 7 6 5 6 5 3 3 4 5 6 5 6 6 10 11 15 17 17 16 15 14 11 9 7 6 5 6 6 8 9 10 11 13 14 15
10 10 9 7 8 8 8 9 9 10 7 7 5 5 5 6 4 4 7 6 6 5 6 10 12 15 15 15 15 13 10 8 7 6 7 8 9 10 12 13 14 15 16
10 11 10 9 9 8 9 9 10 8 8 7 5 5 4 3 4 3 2 4 5 4 4 5 7 10 12 12 13 13 11 9 7 8 8 9 10 12 13 14 15 16 17
9 10 10 9 10 9 9 9 9 9 9 8 6 4 5 3 2 4 4 3 3 3 3 3 5 7 10 10 10 11 11 9 9 9 10 11 12 14 15 16 17 17 18
5 8 8 8 9 9 9 9 9 10 10 9 8 6 5 4 6 5 4 3 4 3 2 2 3 5 8 9 9 10 11 10 9 10 11 12 14 15 16 17 18 19 19
3 5 6 7 7 7 7 7 8 8 9 9 9 7 7 5 3 4 4 3 3 1 1 0 1 2 4 5 7 9 10 10 10 11 12 14 15 16 17 18 19 20 20
3 2 3 4 5 5 5 6 6 6 5 7 7 6 4 4 4 4 4 4 3 2 1 2 1 1 3 4 6 7 7 9 11 12 14 16 17 17 18 19 20 20 20
2 1 1 1 2 2 3 4 4 4 4 4 4 4 3 2 2 2 3 3 5 5 6 4 3 3 5 6 6 6 6 9 12 14 16 17 18 19 19 19 20 20 21
2 1 1 0 1 1 1 2 2 2 3 3 3 4 4 4 3 3 3 2 2 3 3 3 3 2 4 5 7 7 8 11 14 16 17 18 19 19 19 20 20 21 21
3 2 2 1 1 1 2 2 2 3 4 4 4 5 5 6 5 4 3 3 2 2 3 1 1 1 3 3 4 7 9 10 12 15 17 18 19 19 20 20 21 21 21
5 5 5 5 5 5 5 4 4 5 5 5 6 6 6 5 6 4 3 4 3 2 2 2 1 2 3 3 3 4 7 9 11 14 17 18 19 19 20 20 21 21 21
8 8 8 8 8 7 7 7 7 7 7 6 6 7 6 7 6 4 4 4 3 2 2 2 1 1 2 2 3 4 5 7 10 12 15 17 18 19 19 20 21 21 22
8 9 9 9 8 8 8 8 9 9 9 8 7 7 7 6 6 5 4 3 3 2 2 1 1 1 2 2 2 3 4 3 4 9 14 16 17 18 19 20 21 22 22
9 8 9 9 8 8 8 9 9 9 9 9 8 7 7 7 6 4 3 2 2 1 1 0 1 1 1 2 2 2 3 3 5 5 5 6 9 11 16 20 22 22 22
9 9 9 9 9 8 12 13 10 8 8 8 7 6 6 6 5 5 4 2 1 1 1 0 1 2 3 3 2 2 2 3 4 3 3 7 6 9 12 16 20 23 23
9 9 9 9 9 10 13 14 13 9 8 7 6 5 4 4 5 3 2 2 2 3 3 2 3 3 3 3 2 3 3 5 7 5 6 10 7 9 12 17 22 23 24
8 8 8 8 8 10 13 13 12 8 6 6 5 4 4 3 3 2 2 2 2 3 5 3 4 4 4 4 4 5 5 6 7 6 5 7 7 8 10 13 21 24 24
7 7 6 7 8 8 11 10 9 5 5 5 4 3 3 2 1 2 2 3 3 4 6 7 8 10 12 13 11 4 4 5 7 6 3 4 4 5 6 8 15 18 18
6 6 6 6 7 6 9 9 8 4 4 3 2 1 1 1 3 4 2 3 4 4 4 5 7 9 9 11 12 5 4 4 5 5 3 3 4 5 6 5 5 9 14
Wind_Direction
163 169 176 176 184 187 181 188 204 202 202 198 201 191 161 156 135 134 143 149 152 155 155 152 147 141 134 124 113 103 93 82 72 62 55 48 41 35 30 28 23 19 16
177 175 181 176 185 187 183 192 204 192 193 194 189 175 165 163 147 143 150 155 161 165 169 169 165 159 152 144 134 121 105 89 74 59 47 37 29 22 15 13 8 5 2
184 180 181 176 185 190 188 190 201 194 183 183 189 183 180 180 166 152 156 161 166 173 179 182 178 174 169 162 154 144 130 109 84 54 34 19 8 0 355 353 350 347 345
192 183 182 185 188 189 188 179 188 184 182 179 185 196 176 168 177 172 166 167 171 177 184 189 185 183 182 180 176 169 159 149 134 53 2 350 344 339 337 335 334 333 332
200 189 189 192 191 187 182 185 187 180 183 189 191 192 187 176 191 189 176 172 173 175 180 187 186 186 188 190 190 188 184 185 199 243 301 320 324 324 323 323 323 323 323
203 195 194 197 193 188 189 185 187 190 185 183 188 189 195 189 187 197 196 181 174 172 176 180 180 184 190 194 198 199 201 207 219 244 276 296 307 312 313 314 315 315 315
205 201 198 199 197 197 193 187 182 192 196 169 155 198 253 221 203 204 199 189 181 180 177 178 182 184 190 198 201 204 207 215 228 249 273 288 299 305 307 309 310 310 310
212 209 205 204 202 201 198 195 188 186 193 177 161 150 220 253 248 217 199 203 194 184 186 185 184 182 186 192 198 201 204 215 230 251 271 286 295 300 303 305 305 306 306
225 218 213 210 207 205 208 204 196 191 196 196 183 170 181 213 218 225 212 201 194 184 188 192 189 184 180 181 187 195 198 211 232 254 271 284 293 297 299 301 302 303 304
224 224 219 214 215 212 213 211 205 202 190 197 209 219 213 169 168 203 250 213 190 182 179 184 184 181 176 168 175 184 194 209 234 258 275 286 294 297 298 300 301 302 303
222 224 221 217 219 218 217 214 210 208 204 199 194 195 221 233 202 169 204 222 215 200 174 165 166 169 173 169 168 182 197 214 239 261 277 288 294 297 299 301 301 301 301
228 225 225 224 223 220 219 218 216 214 214 209 204 194 185 193 204 198 194 185 204 214 184 158 165 171 178 179 184 196 205 220 248 266 279 288 293 297 300 301 300 299 298
243 234 228 228 227 226 223 220 217 219 216 212 210 208 203 203 177 185 194 178 165 161 142 128 111 148 169 173 181 197 212 229 251 269 280 288 293 298 299 298 298 297 296
255 254 238 233 230 223 224 220 220 219 214 214 212 202 195 192 179 173 176 168 163 177 201 208 96 154 163 169 187 200 221 239 256 271 280 287 293 295 295 294 294 293 293
294 290 272 245 233 223 217 208 214 209 199 202 195 180 169 146 136 143 144 166 175 195 214 200 194 191 183 184 197 208 229 253 265 274 280 285 288 289 289 290 290 291 291
337 336 317 239 209 193 181 175 176 166 157 155 146 141 132 119 109 104 112 111 151 183 186 168 187 176 183 192 212 226 242 260 270 277 281 284 285 286 288 288 289 288 288
22 35 42 60 72 73 96 115 128 132 139 127 119 124 121 116 116 106 102 106 97 116 163 142 142 164 174 193 221 236 251 260 269 277 282 284 285 286 286 287 287 287 286
41 45 53 60 63 63 66 80 92 97 109 113 111 113 114 112 107 104 104 99 99 92 132 149 156 186 207 213 222 243 258 265 267 276 283 285 286 286 287 287 286 286 286
52 54 59 62 63 66 69 72 80 84 87 93 102 109 110 112 108 104 102 101 101 100 103 137 165 201 234 233 238 252 258 265 273 281 287 289 289 289 289 289 288 288 287
60 61 64 65 67 70 73 77 82 85 86 85 87 95 102 108 112 115 113 121 127 123 128 146 185 229 250 254 240 252 273 272 283 292 289 288 290 293 294 294 293 292 289
65 66 69 68 68 71 78 86 88 91 91 88 82 82 88 101 112 112 112 119 115 116 132 168 217 269 274 287 271 260 277 296 292 278 279 289 299 294 292 291 292 289 287
66 69 70 72 71 77 89 91 93 89 91 92 91 86 93 95 100 99 109 128 145 158 154 209 255 259 269 276 282 293 293 308 298 298 323 297 288 285 284 282 285 288 289
71 72 73 75 77 83 88 90 91 91 89 90 93 92 87 85 76 61 45 22 329 294 272 251 244 255 270 271 283 289 276 269 269 277 296 290 280 279 279 283 290 293 294
76 77 77 80 83 84 87 88 88 86 87 84 81 80 80 72 75 58 13 342 302 293 283 265 237 250 261 259 246 252 259 271 274 273 264 277 282 278 283 282 289 292 294
82 80 81 84 87 86 85 83 80 80 81 78 75 75 75 60 24 346 337 311 304 299 301 297 285 282 283 284 280 269 270 283 292 292 260 257 280 292 286 281 283 290 295
95 93 85 81 86 86 83 77 71 73 74 70 63 71 72 23 333 326 327 320 309 304 323 325 308 299 294 290 289 265 228 247 275 290 271 284 291 322 304 278 276 288 293
Height
1545 1546 1547 1548 1550 1551 1553 1555 1556 1557 1559 1560 1561 1562 1563 1564 1563 1562 1563 1563 1563 1563 1563 1563 1562 1562 1562 1562 1561 1561 1561 1561 1560 1560 1560 1559 1558 1558 1557 1556 1556 1555 1555
1543 1544 1546 1547 1548 1550 1551 1553 1554 1556 1557 1558 1559 1560 1561 1561 1561 1560 1560 1560 1561 1561 1561 1561 1561 1561 1560 1560 1560 1560 1560 1560 1559 1559 1558 1558 1557 1557 1556 1555 1554 1554 1553
1541 1542 1543 1545 1546 1548 1549 1550 1552 1553 1554 1555 1556 1557 1558 1558 1559 1558 1557 1558 1558 1558 1558 1559 1559 1559 1559 1558 1558 1558 1558 1558 1558 1557 1557 1556 1556 1555 1554 1553 1553 1552 1551
1538 1539 1541 1542 1543 1545 1546 1548 1549 1550 1551 1552 1553 1554 1555 1555 1555 1556 1555 1554 1555 1555 1556 1556 1556 1556 1556 1556 1556 1556 1556 1556 1555 1555 1555 1554 1553 1553 1552 1551 1550 1550 1549
1535 1536 1537 1539 1540 1541 1543 1544 1545 1547 1548 1549 1549 1550 1551 1551 1552 1552 1552 1551 1551 1551 1552 1553 1553 1553 1553 1554 1554 1553 1553 1553 1553 1552 1552 1551 1551 1550 1549 1549 1548 1547 1546
1531 1532 1533 1535 1536 1537 1538 1539 1541 1542 1544 1545 1546 1546 1547 1547 1548 1548 1548 1548 1548 1547 1548 1549 1549 1549 1550 1550 1550 1550 1550 1549 1549 1549 1548 1548 1547 1547 1546 1546 1545 1544 1543
1527 1528 1529 1530 1531 1532 1534 1535 1536 1538 1539 1541 1542 1542 1542 1542 1542 1543 1544 1544 1543 1543 1543 1543 1544 1545 1545 1546 1546 1546 1546 1546 1545 1545 1545 1544 1543 1543 1542 1542 1541 1540 1540
1522 1523 1524 1525 1526 1527 1529 1530 1531 1532 1533 1535 1536 1537 1537 1538 1536 1536 1537 1538 1538 1538 1538 1538 1539 1539 1540 1541 1541 1542 1542 1542 1541 1541 1540 1540 1539 1538 1538 1537 1537 1536 1535
1516 1517 1518 1519 1520 1522 1522 1524 1525 1526 1527 1529 1530 1531 1530 1528 1529 1530 1530 1531 1532 1532 1532 1533 1533 1534 1534 1534 1535 1536 1537 1537 1537 1536 1536 1535 1534 1534 1533 1532 1531 1531 1530
1510 1511 1512 1513 1514 1515 1516 1518 1519 1520 1521 1521 1523 1523 1525 1525 1525 1523 1524 1524 1525 1525 1526 1526 1527 1528 1528 1528 1529 1530 1530 1531 1531 1531 1530 1529 1529 1528 1527 1527 1526 1525 1524
1504 1505 1506 1507 1508 1509 1510 1511 1512 1513 1514 1514 1515 1516 1517 1519 1519 1519 1518 1518 1518 1518 1519 1520 1520 1521 1521 1522 1522 1523 1524 1524 1524 1524 1524 1523 1522 1522 1521 1521 1519 1518 1517
1497 1498 1499 1500 1501 1502 1503 1504 1505 1506 1507 1508 1508 1509 1510 1511 1511 1512 1511 1511 1511 1512 1513 1513 1513 1514 1514 1515 1515 1516 1517 1517 1518 1518 1517 1517 1516 1515 1514 1513 1512 1511 1509
1491 1492 1493 1493 1494 1495 1496 1498 1499 1499 1500 1501 1501 1501 1502 1503 1504 1505 1505 1504 1504 1505 1506 1506 1507 1507 1508 1508 1509 1509 1510 1510 1510 1511 1510 1510 1509 1508 1506 1505 1504 1503 1502
1485 1485 1486 1486 1487 1488 1489 1490 1491 1492 1493 1494 1494 1495 1495 1496 1497 1497 1498 1499 1497 1498 1498 1499 1499 1500 1501 1502 1503 1503 1504 1504 1504 1503 1503 1503 1502 1501 1499 1498 1496 1495 1494
1478 1479 1479 1480 1481 1482 1482 1483 1484 1484 1486 1486 1487 1488 1489 1489 1489 1490 1490 1491 1492 1491 1491 1492 1493 1494 1494 1496 1497 1497 1498 1498 1497 1497 1496 1496 1495 1493 1492 1490 1489 1487 1486
1472 1472 1473 1473 1474 1475 1476 1477 1477 1478 1479 1479 1480 1481 1482 1482 1483 1483 1483 1484 1484 1486 1486 1486 1487 1489 1489 1490 1491 1491 1492 1492 1491 1491 1490 1489 1488 1486 1485 1483 1481 1480 1479
1467 1467 1467 1468 1468 1469 1470 1470 1471 1472 1472 1473 1474 1475 1476 1476 1477 1478 1478 1478 1479 1480 1481 1481 1483 1484 1484 1485 1486 1486 1486 1486 1485 1484 1483 1482 1481 1479 1478 1476 1474 1473 1472
1463 1463 1463 1463 1463 1464 1465 1465 1466 1467 1467 1468 1469 1469 1470 1471 1472 1473 1474 1474 1475 1475 1477 1477 1478 1479 1480 1480 1480 1480 1480 1480 1479 1478 1477 1476 1474 1473 1471 1469 1468 1466 1465
1459 1459 1459 1459 1460 1460 1461 1461 1462 1463 1463 1464 1465 1465 1466 1467 1468 1469 1470 1471 1471 1472 1473 1473 1474 1475 1476 1475 1475 1475 1475 1474 1474 1472 1471 1470 1468 1467 1465 1463 1462 1460 1458
1457 1457 1457 1458 1458 1458 1458 1459 1459 1460 1461 1461 1462 1463 1463 1465 1465 1466 1467 1467 1468 1469 1470 1470 1470 1471 1471 1471 1471 1470 1469 1469 1468 1467 1465 1464 1463 1461 1460 1458 1456 1454 1451
1456 1456 1456 1456 1457 1457 1457 1457 1458 1458 1459 1459 1460 1461 1462 1463 1464 1464 1465 1466 1466 1466 1467 1467 1467 1467 1467 1467 1467 1466 1465 1463 1462 1461 1459 1458 1457 1455 1454 1452 1449 1447 1444
1456 1456 1456 1456 1456 1456 1456 1457 1457 1458 1458 1459 1460 1460 1461 1462 1463 1463 1463 1464 1464 1464 1464 1464 1464 1464 1463 1463 1462 1462 1461 1459 1456 1457 1454 1452 1451 1449 1447 1445 1442 1440 1437
1456 1456 1456 1456 1456 1456 1456 1457 1457 1458 1458 1459 1459 1460 1461 1461 1462 1462 1462 1462 1462 1461 1462 1462 1461 1460 1460 1459 1459 1458 1456 1455 1452 1451 1448 1444 1444 1441 1440 1437 1436 1433 1431
1457 1457 1457 1457 1457 1457 1458 1458 1458 1459 1459 1460 1460 1460 1460 1460 1460 1460 1460 1460 1459 1459 1458 1458 1457 1456 1456 1455 1454 1454 1452 1449 1447 1446 1444 1439 1436 1434 1432 1430 1429 1426 1423
1458 1458 1458 1458 1458 1458 1459 1459 1459 1459 1460 1460 1460 1460 1460 1459 1459 1458 1458 1457 1456 1455 1455 1454 1454 1453 1453 1452 1451 1449 1447 1445 1442 1440 1438 1434 1430 1426 1423 1422 1420 1418 1416
1459 1459 1459 1460 1460 1460 1460 1460 1460 1460 1460 1460 1459 1459 1458 1458 1457 1456 1455 1454 1453 1452 1452 1451 1450 1450 1449 1448 1447 1445 1444 1441 1438 1435 1432 1430 1425 1422 1414 1411 1411 1410 1408